Watertown, WI

11:42 PM CST on December 14, 2017 (GMT -0600)
Watertown Municipal

Weather History for KRYV - May, 2013

Change the Weather History Date:

Wednesday, May 1, 2013

  Actual Average Record
Temperature  
Mean Temperature 67 °F -  
Max Temperature 83 °F 64 °F 92 °F (1952)
Min Temperature 51 °F 42 °F 25 °F (1978)
Cooling Degree Days 2    
Growing Degree Days 17 (Base 50)    
Moisture  
Dew Point 51 °F    
Average Humidity 59    
Maximum Humidity 84    
Minimum Humidity 29    
Precipitation  
Precipitation 0.03 in - - ()
Sea Level Pressure  
Sea Level Pressure 30.05 in    
Wind  
Wind Speed 7 mph (WNW)    
Max Wind Speed 14 mph    
Max Gust Speed 24 mph    
Visibility 10 miles    
Events      
Averages and records for this station are not official NWS values.
T = Trace of Precipitation, MM = Missing Value Source: NWS Daily Summary

Daily Weather History Graph

Daily Weather History Graph

Search for Another Location

Airport or City:

Trip Planner

Search our weather history database for the weather conditions in past years. The results will help you decide how hot, cold, wet, or windy it might be!

Date:

Astronomy

May. 01, 2013 Rise Set
Actual Time 5:48 AM CDT 7:56 PM CDT
Civil Twilight 5:16 AM CDT 8:27 PM CDT
Nautical Twilight 4:38 AM CDT 9:06 PM CDT
Astronomical Twilight 3:56 AM CDT 9:48 PM CDT
Moon 1:06 AM CDT (5/1) 11:26 AM CDT (5/1)
Length of Visible Light 15h 11m
Length of Day
14h 08m
Waning Gibbous, 59% of the Moon is Illuminated
May 1
Waning Gibbous
May 2
Last Quarter
May 9
New
May 17
First Quarter
May 24
Full

Hourly Weather History & Observations

Time (CDT) Temp. Heat Index Dew Point Humidity Pressure Visibility Wind Dir Wind Speed Gust Speed Precip Events Conditions
12:15 AM 70.7 °F - 54.0 °F 55% 29.90 in 10.0 mi SSW 11.5 mph 17.3 mph N/A   Clear
12:35 AM 70.3 °F - 54.0 °F 56% 29.91 in 10.0 mi SSW 9.2 mph - N/A   Clear
12:55 AM 69.8 °F - 54.0 °F 57% 29.91 in 10.0 mi South 6.9 mph - N/A   Clear
1:15 AM 69.4 °F - 53.8 °F 57% 29.92 in 10.0 mi South 6.9 mph - N/A   Clear
1:35 AM 68.7 °F - 53.6 °F 58% 29.92 in 10.0 mi South 6.9 mph - N/A   Clear
1:55 AM 68.5 °F - 53.4 °F 58% 29.92 in 10.0 mi South 8.1 mph - N/A   Clear
2:15 AM 68.0 °F - 53.2 °F 59% 29.92 in 10.0 mi South 6.9 mph - N/A   Clear
2:35 AM 66.2 °F - 53.8 °F 64% 29.92 in 10.0 mi South 6.9 mph - N/A   Clear
2:55 AM 66.0 °F - 53.8 °F 65% 29.94 in 10.0 mi Calm Calm - N/A   Clear
3:15 AM 66.2 °F - 53.6 °F 64% 29.95 in 10.0 mi NW 6.9 mph - N/A   Clear
3:35 AM 61.7 °F - 48.7 °F 62% 29.95 in 10.0 mi North 4.6 mph - N/A   Clear
3:55 AM 59.7 °F - 47.5 °F 64% 29.96 in 10.0 mi Calm Calm - N/A   Clear
4:15 AM 59.4 °F - 47.1 °F 64% 29.97 in 10.0 mi NNW 4.6 mph - N/A   Clear
4:35 AM 57.0 °F - 47.3 °F 70% 29.97 in 10.0 mi ESE 3.5 mph - N/A   Clear
4:55 AM 55.0 °F - 48.2 °F 78% 29.98 in 10.0 mi Calm Calm - N/A   Clear
5:15 AM 52.7 °F - 47.7 °F 83% 29.98 in 10.0 mi Calm Calm - N/A   Clear
5:35 AM 52.0 °F - 47.3 °F 84% 29.99 in 10.0 mi Calm Calm - N/A   Clear
5:55 AM 53.1 °F - 48.2 °F 84% 30.00 in 10.0 mi South 3.5 mph - N/A   Scattered Clouds
6:15 AM 61.3 °F - 53.6 °F 76% 30.01 in 10.0 mi South 5.8 mph - N/A   Mostly Cloudy
6:35 AM 62.8 °F - 54.0 °F 73% 30.01 in 10.0 mi South 5.8 mph - N/A   Mostly Cloudy
6:55 AM 63.3 °F - 54.5 °F 73% 30.02 in 10.0 mi South 4.6 mph - N/A   Scattered Clouds
7:15 AM 62.4 °F - 52.5 °F 70% 30.03 in 10.0 mi WNW 3.5 mph - N/A   Clear
7:35 AM 60.6 °F - 49.8 °F 68% 30.04 in 10.0 mi NW 5.8 mph - N/A   Clear
8:15 AM 61.9 °F - 49.8 °F 65% 30.05 in 10.0 mi NNW 5.8 mph - N/A   Clear
8:35 AM 62.8 °F - 50.0 °F 63% 30.06 in 10.0 mi Calm Calm - N/A   Clear
8:55 AM 64.4 °F - 51.1 °F 62% 30.06 in 10.0 mi NW 3.5 mph - N/A   Clear
9:15 AM 65.5 °F - 51.4 °F 60% 30.07 in 10.0 mi NW 5.8 mph - N/A   Clear
9:35 AM 66.2 °F - 52.0 °F 60% 30.08 in 10.0 mi WNW 6.9 mph - N/A   Clear
9:55 AM 66.0 °F - 52.0 °F 60% 30.08 in 10.0 mi WNW 3.5 mph - N/A   Clear
10:15 AM 67.3 °F - 52.5 °F 59% 30.08 in 10.0 mi Calm Calm - N/A   Clear
10:35 AM 68.2 °F - 52.5 °F 57% 30.09 in 10.0 mi West 3.5 mph - N/A   Clear
10:55 AM 69.1 °F - 52.7 °F 56% 30.09 in 10.0 mi Calm Calm - N/A   Clear
11:35 AM 71.6 °F - 53.4 °F 53% 30.09 in 10.0 mi West 3.5 mph - N/A   Clear
11:55 AM 72.5 °F - 54.0 °F 52% 30.09 in 10.0 mi SW 5.8 mph - N/A   Clear
12:35 PM 75.6 °F - 54.5 °F 48% 30.07 in 10.0 mi SSW 6.9 mph - N/A   Clear
1:35 PM 79.2 °F - 55.2 °F 44% 30.07 in 10.0 mi SSW 6.9 mph - 0.03 in   Clear
2:15 PM 79.3 °F - 54.9 °F 43% 30.07 in 10.0 mi SW 6.9 mph - N/A   Scattered Clouds
2:35 PM 78.6 °F - 55.0 °F 44% 30.07 in 10.0 mi Calm Calm - N/A   Mostly Cloudy
2:55 PM 79.2 °F - 54.3 °F 42% 30.07 in 10.0 mi South 8.1 mph - N/A   Mostly Cloudy
3:15 PM 79.7 °F - 53.2 °F 40% 30.07 in 10.0 mi SSW 3.5 mph - N/A   Mostly Cloudy
3:35 PM 82.0 °F 81.2 °F 53.2 °F 37% 30.07 in 10.0 mi SW 10.4 mph - N/A   Mostly Cloudy
4:15 PM 81.5 °F - 52.7 °F 37% 30.07 in 10.0 mi South 6.9 mph - N/A   Scattered Clouds
4:35 PM 81.0 °F - 50.9 °F 35% 30.07 in 10.0 mi SW 3.5 mph - N/A   Mostly Cloudy
4:55 PM 82.2 °F - 47.3 °F 29% 30.07 in 10.0 mi South 8.1 mph - N/A   Mostly Cloudy
5:15 PM 80.2 °F - 49.1 °F 34% 30.07 in 10.0 mi WNW 5.8 mph - N/A   Mostly Cloudy
5:35 PM 79.7 °F - 55.2 °F 43% 30.07 in 10.0 mi Calm Calm - N/A   Mostly Cloudy
5:55 PM 79.3 °F - 54.1 °F 42% 30.07 in 10.0 mi WNW 4.6 mph - N/A   Overcast
6:15 PM 76.3 °F - 56.7 °F 51% 30.07 in 10.0 mi North 3.5 mph - N/A   Overcast
6:35 PM 75.4 °F - 55.9 °F 51% 30.07 in 10.0 mi NNE 11.5 mph - N/A   Overcast
6:55 PM 74.7 °F - 54.7 °F 50% 30.07 in 10.0 mi NNE 8.1 mph - N/A   Overcast
7:15 PM 72.0 °F - 55.6 °F 56% 30.08 in 10.0 mi NNE 10.4 mph - N/A   Mostly Cloudy
7:35 PM 70.3 °F - 55.4 °F 59% 30.09 in 10.0 mi North 6.9 mph - N/A   Mostly Cloudy
7:55 PM 68.7 °F - 54.9 °F 61% 30.09 in 10.0 mi North 9.2 mph - N/A   Mostly Cloudy
8:15 PM 66.9 °F - 54.3 °F 64% 30.10 in 10.0 mi NNE 11.5 mph 16.1 mph N/A   Overcast
8:35 PM 65.5 °F - 53.4 °F 65% 30.12 in 10.0 mi NNE 11.5 mph 19.6 mph N/A   Mostly Cloudy
9:15 PM 61.7 °F - 50.7 °F 67% 30.14 in 10.0 mi NE 11.5 mph 19.6 mph N/A   Mostly Cloudy
9:35 PM 58.5 °F - 47.7 °F 67% 30.16 in 10.0 mi NE 12.7 mph - N/A   Mostly Cloudy
9:55 PM 55.6 °F - 43.7 °F 64% 30.18 in 10.0 mi NNE 13.8 mph - N/A   Mostly Cloudy
10:15 PM 54.7 °F - 43.0 °F 65% 30.19 in 10.0 mi NNE 12.7 mph 20.7 mph N/A   Mostly Cloudy
10:35 PM 54.0 °F - 41.9 °F 64% 30.19 in 10.0 mi NE 13.8 mph 24.2 mph N/A   Overcast
10:55 PM 53.6 °F - 41.9 °F 65% 30.20 in 10.0 mi NNE 12.7 mph 18.4 mph N/A   Overcast
11:15 PM 52.7 °F - 41.0 °F 64% 30.21 in 10.0 mi NE 11.5 mph - N/A   Overcast
11:35 PM 52.2 °F - 40.8 °F 65% 30.21 in 10.0 mi NE 11.5 mph 19.6 mph N/A   Mostly Cloudy
11:55 PM 51.6 °F - 41.0 °F 67% 30.22 in 10.0 mi NE 13.8 mph - N/A   Scattered Clouds